Regional Weather Roundup
Issued by NWS Wakefield, VA

Home | Current Version | Previous Version | Text Only | Print | Product List | Glossary On
Versions: 1 2 3 4 5 6 7 8 9 10 11 12 13 14 15 16 17 18 19 20 21 22 23 24 25 26 27 28 29 30 31 32 33 34 35 36 37 38 39 40 41 42 43 44 45 46 47 48 49 50
185
ASUS41 KAKQ 030715
RWRAKQ

REGIONAL WEATHER ROUNDUP
NATIONAL WEATHER SERVICE WAKEFIELD VA
200 AM EST SAT DEC 03 2016

Note: "fair" indicates few or no clouds below 12,000 feet with no
significant weather and/or obstructions to visibility. * = Denotes
station may not report precipitation (e.g., rain,snow,etc.),
thunder or fog.

VAZ042-051-052>054-056-030800-
NORTHERN VIRGINIA

CITY           SKY/WX    TMP DP  RH WIND       PRES   REMARKS
WASH NATIONAL  MOCLDY    45  28  51 W10       30.15
DULLES         MOCLDY    42  27  55 NW24      30.12
FORT BELVOIR   CLOUDY    44  26  49 NW12      30.14F
QUANTICO       CLOUDY    43  27  53 W3        30.17S
FREDERICKSBRG* MOCLDY    40  30  66 SW6       30.15S
STAFFORD*      CLOUDY    41  27  57 W5        30.19S
WARRENTON      CLOUDY    35  27  70 CALM      30.15R
CULPEPER*      PTCLDY    42  27  54 CALM      30.16S
MANASSAS*      MOCLDY    43  27  52 NW10G18   30.15S
LEESBURG*      NOT AVBL
WINCHESTER     CLOUDY    39  27  60 W14G22    30.14S
FRONT ROYAL*   CLOUDY    41  28  60 W8        30.14S
LURAY*         NOT AVBL
$$

VAZ048-049-060>072-079>083-030800-
CENTRAL AND SOUTH CENTRAL VIRGINIA

CITY           SKY/WX    TMP DP  RH WIND       PRES   REMARKS
RICHMOND       PTCLDY    38  28  67 NW3       30.16F
CHESTERFIELD*  FAIR      28  12  50 NW5       30.18F
PETERSBURG*    PTCLDY    29  27  92 CALM      30.18S
HANOVER        CLEAR     32  28  85 CALM      30.18F
TAPPAHANNOCK*  CLEAR     38  24  55 W5        30.16S
QUINTON*       FAIR      33  30  90 NW3       30.16F
CHARLOTTSVILLE PTCLDY    41  24  51 NW3       30.16S
GORDONSVILLE*  FAIR      35  27  73 CALM      30.15F
ORANGE*          N/A     34  30  86 CALM      30.17F
LOUISA*        CLEAR     34  30  86 W3        30.15S
BUMPASS*       FAIR      32  28  83 CALM      30.16F
FARMVILLE*     PTCLDY    37  30  75 CALM      30.17S
CREWE*         FAIR      31  31  99 CALM      30.18R
FORT PICKETT*  FAIR      35  24  64 W3        30.18R
CHASE CITY*    FAIR      37  29  74 W3        30.19S
CLARKSVILLE*   FAIR      39  30  70 NW5       30.20R
SOUTH HILL*    CLOUDY    37  31  79 CALM      30.24S
LAWRENCEVILLE* FAIR      36  29  76 CALM      30.18S
EMPORIA*       PTCLDY    32  28  86 CALM      30.20R
$$

VAZ088>098-030800-
SOUTHEAST VIRGINIA

CITY           SKY/WX    TMP DP  RH WIND       PRES   REMARKS
NORFOLK        CLEAR     45  29  53 NW8G18    30.15S
VIRGINIA BEACH PTCLDY    43  28  55 NW15      30.14S
NORFOLK NAVAL  PTCLDY    43  30  60 NW14      30.17S
WEST POINT*    PTCLDY    38  30  72 W6        30.18S
SALUDA*        FAIR      38  30  73 W3        30.15S
NEWPORT NEWS   CLEAR     39  29  67 NW5       30.16F
LANGLEY AFB    PTCLDY    41  30  65 NW6       30.15S
FORT EUSTIS    CLEAR     42  30  63 NW9       30.14S
WILLIAMSBURG*  NOT AVBL
HR EXEC AP*    FAIR      36  28  75 CALM      30.15S
FRANKLIN*      CLEAR     32  30  92 CALM      30.19R
US460-WAKEFLD  PTCLDY    32  29  88 CALM      30.18R
$$

VAZ020-022-025-037-045-030800-
WEST CENTRAL AND SOUTHWEST VIRGINIA

CITY           SKY/WX    TMP DP  RH WIND       PRES   REMARKS
STAUNTON*      MOCLDY    36  25  63 CALM      30.18R
WAYNESBORO*    FAIR      36  23  60 NW6       30.16R
HOT SPRINGS VA NOT AVBL
LYNCHBURG      CLEAR     33  24  69 S5        30.20R
DANVILLE       CLOUDY    40  29  64 N5        30.22R
SOUTH BOSTON*  NOT AVBL
MARTINSVILLE   PTCLDY    38  26  61 NW15      30.23R
ROANOKE        CLOUDY    39  25  57 NW8       30.22S
BLACKSBURG     CLOUDY    35  27  73 NW6       30.22S
DUBLIN*        CLOUDY    37  27  69 NW13      30.22R
MARION*        CLOUDY    35  28  77 NW13G23   30.24R
HILLSVILLE*    CLOUDY    33  28  83 NW15      30.17R WCI  23
RICHLANDS*     CLOUDY    32  28  86 NW5       30.25R
WISE*          CLOUDY    32  28  86 CALM      30.27R
ABINGDON*      CLOUDY    37  30  75 N3        30.27R
$$

MDZ021>025-VAZ099-100-030800-
SOUTHERN MARYLAND AND THE DELMARVA PENINSULA

CITY           SKY/WX    TMP DP  RH WIND       PRES   REMARKS
PATUXENT RIVER PTCLDY    41  26  55 W12       30.13F
BAY BRIDGE APT PTCLDY    45  30  57 W17G25    30.10F
LEONARDTOWN    PTCLDY    41  28  60 W6        30.15F
DOVER          CLEAR     42  30  63 W10       30.06R
GEORGETOWN     CLEAR     43  28  55 W8        30.09R
EASTON         CLEAR     44  28  53 NW10G17   30.13F
CAMBRIDGE      PTCLDY    41  28  60 W9          N/A
SALISBURY      MOCLDY    42  28  57 W9        30.11R
OCEAN CITY     CLEAR     41  28  60 W9        30.09R
WALLOPS ISLAND CLEAR     42  29  59 NW12G21   30.11S
ACCOMACK*      CLEAR     45  29  53 NW15G32   30.13R
$$

NCZ012>017-030>032-030800-
NORTH CENTRAL AND EASTERN NORTH CAROLINA

CITY           SKY/WX    TMP DP  RH WIND       PRES   REMARKS
ROANOKE RAPIDS FAIR      41  32  70 NW5       30.19S
RALEIGH        MOCLDY    45  29  53 VRB5      30.20R
ELIZABETH CITY CLEAR     42  32  67 N13       30.16R
AHOSKIE*       PTCLDY    39  31  73 CALM      30.19S
EDENTON*       NOT AVBL
CURRITUCK*     CLEAR     42  34  71 NW5       30.15F
KILL DEVIL HLS MOCLDY    46  40  80 NW8       30.12R
MANTEO         PTCLDY    46  37  73 N12G17    30.14R
CAPE HATTERAS  CLEAR     50  36  58 NW13G22   30.12R
TARBORO*       NOT AVBL
GOLDSBORO      MOCLDY    44  32  63 N5        30.17R
WASHINGTON     PTCLDY    41  32  71 NW5       30.18R
GREENVILLE     PTCLDY    41  34  75 CALM      30.20R
NEW BERN       CLEAR     44  33  65 N7        30.18R
WILMINGTON     CLOUDY    43  37  79 NW6       30.19R
$$

VAZ048-030800-
ELSEWHERE

CITY           SKY/WX    TMP DP  RH WIND       PRES   REMARKS
HARRISBURG PA  NOT AVBL
BALTIMORE      CLOUDY    43  29  57 W15G21    30.10S
ANNAPOLIS      CLOUDY    45  28  51 W12       30.11S
ANDREWS AFB    CLOUDY    43  27  52 W14       30.12R
PHILADELPHIA   MOCLDY    42  30  62 W13       30.04R
HENDERSON NC   PTCLDY    38  27  66 NW5       30.20S
GREENSBORO     PTCLDY    41  30  65 NW6       30.21R
ROCKY MOUNT    PTCLDY    39  33  79 N7        30.19
$$

VAZ100-030800-
MARINE

STATION/POSITION TIME  TEMP    WIND        PRES    WAVE   SWELL
                       AIR SEA DIR/SP/G            HT/PER HT/PER
                 (UTC) (F)     (DEG/KT/KT) (MB)    (FT/S) (FT/S)
BRANDYWINE LGT   0642   44     290/ 24/ 28   N/A
CAPE MAY NJ      0642   44 48  290/ 21/ 26 1017.2R
LEWES DE         0648   44 50  280/ 14/ 19 1018.3R
OCEAN-CITY-INLET 0648   42 51  310/  7/ 11 1019.2R
WACHAPREAGUE VA  0648   44 51  310/  2/ 11 1020.0S
THOMAS POINT MD  0600   44 50  290/ 21/ 24   N/A
GOOSES REEF MD   0650   45     310/ 16/ 17 1020.6F
COVE POINT MD    0648   43     310/ 10/ 15 1020.7F
SOLOMONS ISLAND  0648   43 52  270/  8/ 12   N/A
BISHOPS HEAD MD  0648   45 45  280/ 18/ 22 1020.3F
PINEY POINT MD   0636          290/ 12/ 15   N/A
POTOMAC MD       0650   46     300/ 16/ 21 1019.9F
CAMBRIDGE MD     0648   44 48  270/  9/ 16 1018.9S
LEWISETTA VA     0648   43 51  280/  7/  8 1020.7S
RAPPAHANNOCK LGT 0636          310/ 21/ 25 1021.0R
STINGRAY PT      0650   44     330/ 16/ 19 1020.9F
YORK RVR RNG VA  0648   43     320/ 12/ 15 1020.6F
YORKTOWN VA      0648   44 53  290/ 11/ 13 1020.8F
JAMESTOWN VA     0650   42     340/  8/ 10   N/A
DOMINION TERM VA 0636   44     360/ 11/ 13 1021.3S
KIPTOPEKE VA     0636      53  340/ 20/ 26   N/A
CHES BAY BRIDGE  0636   46 54  330/ 24/ 28 1020.6F
CAPE HENRY VA    0636   46     330/ 25/ 29   N/A
WILLOUBY STN VA  0636   44     330/ 13/ 16 1022.0R
S CRANEY ISL VA  0636   44     350/  9/ 13 1020.9F
CAPE HENRY BUOY  0642      56                N/A     4/ 5
1ST LANDING BUOY 0650   47                 1021.0F
CAPE CHARLES BUO 0656      56                N/A     4/ 3
OFFSHORE WE BUOY 0651      56                N/A     5/ 5
64NM E OF VA BCH 0650   49 60  340/ 21/ 29 1018.7R   5/ 5
DUCK PIER NC     0636   47 56  340/ 24/ 27 1019.5R
44100 DUCK FRF   0635      57                N/A     4/ 4
OREGON INLET NC  0636   47 56  320/ 11/ 13 1019.9R
HATTERAS NC      0636   51 61  320/ 22/ 24 1019.6R
DIAMOND SHLS NC  0650   56 74  330/ 23/ 29 1019.2R   4/ 4   2/ 8
CAPE LOOKOUT NC  0600   54     300/ 16/ 20 1019.7F
$$




USA.gov is the U.S. government's official web portal to all federal, state and local government web resources and services.